Location: Arcusa
(42.3167°N, 0.0833°W)
Time: 16:27:41
(UTC+00:00)

CZ-2C R/B - Pass Details

Date: 25 January 2020
Orbit: 785 x 870 km, 98.3° (Epoch: 21 February)

Event Time Altitude Azimuth Distance (km) Brightness Sun altitude
Rises 06:48:44 0° 139° (SE) 3,301 7.0 -6.3°
Reaches altitude 10° 06:51:13 10° 131° (SE) 2,386 6.5 -5.9°
Maximum altitude 06:55:56 34° 67° (ENE) 1,318 4.3 -5.1°
Drops below altitude 10° 07:00:46 10° 4° (N) 2,449 4.9 -4.2°
Sets 07:03:20 0° 356° (N) 3,401 5.6 -3.8°
